This demonstration page uses our WeatherBlox Daily Observations layout. Learn more.

Left ArrowRight Arrow

39.08367, -84.50855

Hourly Observations for December 2, 2019

Temp ( °F °C ) Dew Point ( °F °C ) Humidity (%) Winds ( mph kmh ) Pressure ( in mb ) Visibility ( mi km ) Precip ( " mm )
12:53 am 00:53 Cloudy with Light Rain 38 3.3 34 1.1 86 86 WSW 10 17 29.67 1005 10 16 0.02 0.51
1:33 am 01:33 Cloudy with Light Rain 37 2.8 34 1.1 89 89 WSW 10 17 29.69 1005 10 16 0.01 0.25
1:53 am 01:53 Cloudy with Light Rain 37 2.8 34 1.1 89 89 WSW 10 17 29.67 1005 10 16 0.02 0.51
2:53 am 02:53 Cloudy with Light Rain 37 2.8 34 1.1 89 89 W 13 20 29.70 1006 10 16 0.02 0.51
3:53 am 03:53 Cloudy with Light Rain 37 2.8 34 1.1 89 89 W 8 13 29.72 1006 10 16 0.01 0.25
4:12 am 04:12 Cloudy 37 2.8 34 1.1 89 89 W 10 17 29.74 1007 10 16 0.00 0.00
4:26 am 04:26 Cloudy 37 2.8 34 1.1 89 89 W 8 13 29.74 1007 10 16 0.00 0.00
4:53 am 04:53 Cloudy with Light Rain 37 2.8 34 1.1 89 89 W 8 13 29.75 1007 10 16 0.00 0.00
5:25 am 05:25 Cloudy with Light Rain 37 2.8 34 1.1 89 89 VRB 5 7 29.77 1008 10 16 0.00 0.00
5:53 am 05:53 Cloudy 38 3.3 34 1.1 86 86 W 7 11 29.76 1008 10 16 0.00 0.00
6:28 am 06:28 Cloudy 38 3.3 34 1.1 86 86 WNW 9 15 29.80 1009 10 16 N/A
6:53 am 06:53 Cloudy 37 2.8 34 1.1 89 89 NNW 10 17 29.80 1009 10 16 N/A
7:53 am 07:53 Cloudy 38 3.3 34 1.1 86 86 NNW 9 15 29.84 1010 10 16 0.00 0.00
8:53 am 08:53 Cloudy 37 2.8 34 1.1 89 89 NW 8 13 29.87 1012 10 16 0.01 0.25
9:53 am 09:53 Cloudy 38 3.3 34 1.1 86 86 VRB 7 11 29.90 1013 10 16 N/A
10:53 am 10:53 Cloudy 38 3.3 33 0.6 83 83 WNW 9 15 29.93 1014 10 16 N/A
11:53 am 11:53 Cloudy 37 2.8 33 0.6 86 86 WNW 13 20 29.94 1014 10 16 N/A
12:53 pm 12:53 Cloudy 38 3.3 33 0.6 83 83 W 8 13 29.94 1014 10 16 N/A
1:53 pm 13:53 Cloudy 39 3.9 33 0.6 79 79 WNW 8 13 29.93 1014 10 16 N/A
2:53 pm 14:53 Cloudy with Light Rain 38 3.3 33 0.6 83 83 W 10 17 29.94 1014 10 16 0.00 0.00
3:53 pm 15:53 Cloudy with Light Rain 37 2.8 34 1.1 89 89 NNW 7 11 29.96 1015 5 8 0.00 0.00
4:15 pm 16:15 Cloudy with Light Rain 36 2.2 33 0.6 89 89 WNW 12 19 29.99 1016 5 8 0.01 0.25
4:53 pm 16:53 Cloudy with Mist and Fog 35 1.7 33 0.6 93 93 N 6 9 29.99 1016 5 8 0.05 1.27
5:53 pm 17:53 Cloudy 37 2.8 33 0.6 86 86 W 6 9 30.02 1017 7 11 0.01 0.25
6:06 pm 18:06 Cloudy with Light Rain 37 2.8 34 1.1 89 89 W 6 9 30.03 1017 8 13 0.00 0.00
6:42 pm 18:42 Cloudy with Light Rain 35 1.7 34 1.1 96 96 W 8 13 30.05 1018 7 11 0.03 0.76
6:53 pm 18:53 Cloudy with Light Rain 35 1.7 33 0.6 93 93 W 10 17 30.04 1017 5 8 0.03 0.76
7:09 pm 19:09 Cloudy with Light Rain 35 1.7 33 0.6 93 93 W 8 13 30.06 1018 4 6 0.01 0.25
7:18 pm 19:18 Cloudy with Light Rain 34 1.1 33 0.6 97 97 W 7 11 30.07 1018 4 6 0.02 0.51
7:53 pm 19:53 Cloudy with Light Rain 35 1.7 33 0.6 93 93 W 10 17 30.04 1017 5 8 0.02 0.51
8:53 pm 20:53 Cloudy 35 1.7 33 0.6 93 93 W 6 9 30.05 1018 7 11 0.01 0.25
9:53 pm 21:53 Cloudy 35 1.7 33 0.6 93 93 W 8 13 30.06 1018 8 13 0.00 0.00
10:53 pm 22:53 Cloudy 36 2.2 32 undefined 86 86 W 9 15 30.06 1018 10 16 N/A
11:42 pm 23:42 Cloudy 36 2.2 32 undefined 86 86 N N/A 30.05 1018 10 16 N/A
11:53 pm 23:53 Cloudy 36 2.2 32 undefined 86 86 NNW 3 6 30.03 1017 10 16 N/A

Powered by AerisWeather